RH
88 87 87 87 90 94 97 100 100 97 96 96 96 96 89 75 64 72 89 94 95 101 100 97 98 94 93 94 90 88 87 85 84 84 86 90 89 89 90 89 89 88 84 83 83 83 85 84 86 90 91 93 95 97 99 100 100 100 100 100 100 100 100 100 100 100 100 100 100 99 99 99 93 90 92 87 79 78 74 70 70 64 58 62 65 64 63
91 88 87 88 89 93 98 99 98 98 99 98 98 101 98 87 78 85 95 96 97 101 99 97 96 91 89 89 86 86 88 88 88 87 89 93 93 91 93 92 91 89 86 84 82 81 82 82 84 88 90 93 95 96 99 100 99 100 100 100 100 100 100 100 100 100 100 100 100 99 101 97 88 88 93 88 82 81 78 74 72 65 59 60 62 62 63
94 91 90 91 91 95 99 98 97 98 98 99 100 99 98 96 95 94 94 98 101 99 97 96 92 89 89 90 89 90 91 90 90 91 91 94 94 93 93 92 90 87 84 82 81 80 80 81 83 86 89 92 94 95 97 99 100 99 98 98 99 99 100 100 100 100 100 100 100 100 100 96 92 91 90 85 82 83 80 76 73 66 60 59 59 61 61
95 88 88 95 92 88 94 99 100 99 99 99 98 98 98 97 97 97 96 99 100 98 97 95 91 90 92 94 93 91 91 91 91 93 95 95 95 94 93 92 91 87 83 82 81 80 79 80 82 85 88 90 93 94 96 98 100 99 98 99 99 99 100 100 100 100 100 100 100 99 98 96 95 92 86 84 85 83 78 75 72 67 62 58 58 59 58
96 88 88 95 87 77 85 96 99 98 97 95 94 97 99 94 93 97 99 98 97 96 96 95 95 96 96 97 97 94 93 93 92 93 95 96 96 94 93 93 91 88 85 82 81 80 77 78 81 83 86 89 91 94 95 96 97 98 99 100 100 100 99 99 100 100 100 100 100 99 97 96 95 92 86 85 84 80 78 75 69 64 60 58 57 57 57
94 89 86 91 85 79 87 94 93 93 91 93 97 99 99 96 93 94 97 96 95 92 92 95 99 99 98 98 97 95 95 96 95 94 93 95 96 95 95 95 92 90 87 82 80 78 76 77 80 82 84 86 88 90 91 92 94 97 100 100 100 100 99 99 100 99 99 101 100 99 98 95 94 92 87 85 83 80 76 70 63 59 58 58 57 57 56
95 92 85 89 90 90 95 94 88 85 84 88 95 97 96 95 94 95 98 97 95 93 92 94 97 97 96 94 94 96 95 93 95 97 95 95 97 96 97 97 94 92 89 84 80 77 76 76 78 80 82 83 85 87 87 89 91 94 98 100 99 100 100 99 100 100 99 100 100 100 97 93 92 91 86 83 82 80 74 65 60 58 57 57 57 56 55
95 96 88 90 94 93 93 93 90 88 86 87 92 96 97 94 90 94 100 98 96 95 93 92 93 94 94 93 94 95 91 89 91 94 95 96 97 98 98 98 97 94 90 85 80 76 75 75 76 78 80 81 83 84 84 85 88 91 94 98 100 100 100 100 100 100 99 97 98 99 95 90 89 87 85 83 82 80 75 68 64 60 59 59 56 54 54
92 98 97 95 97 97 94 95 97 96 95 96 95 96 98 93 86 89 96 98 95 94 94 93 92 91 92 95 98 94 88 86 88 90 94 96 96 97 96 94 93 89 85 81 77 75 74 73 74 76 78 80 81 82 82 83 85 88 90 95 99 99 100 100 100 100 99 98 99 98 91 87 86 86 85 83 82 80 76 72 68 63 61 62 59 55 54
89 94 100 98 97 98 96 97 97 92 92 95 95 94 97 94 86 84 90 95 95 95 95 93 93 93 93 96 100 96 87 85 87 91 94 93 94 95 93 90 88 84 82 80 77 74 73 71 72 73 74 76 78 78 80 82 83 86 87 91 96 99 100 100 99 100 100 98 98 98 95 91 89 86 83 81 80 78 73 69 69 67 64 64 63 59 56
90 90 96 98 95 95 96 97 93 87 89 94 94 94 99 97 87 82 86 91 92 93 93 93 96 99 97 97 99 94 88 88 90 93 95 92 91 90 87 86 86 82 81 80 75 73 73 71 71 71 70 72 73 73 74 74 77 83 86 88 92 96 99 100 99 100 100 99 99 99 98 98 94 89 85 82 79 79 77 73 71 69 68 66 67 67 66
92 91 96 99 96 95 97 96 90 86 88 92 91 92 99 99 88 81 84 89 90 91 92 94 98 98 96 97 97 90 85 87 88 89 92 92 89 86 82 80 80 78 77 77 75 75 76 74 72 71 71 71 72 72 70 66 69 77 82 84 86 90 95 99 100 99 99 99 100 97 94 92 90 86 84 81 78 76 77 76 72 70 68 68 70 72 74
93 94 98 98 96 96 98 95 91 89 89 91 92 94 98 98 90 82 82 87 89 91 93 96 100 98 93 93 94 89 84 87 87 85 85 83 81 80 79 76 74 74 74 74 75 75 75 73 72 72 72 71 72 73 71 67 65 67 70 75 79 83 89 93 97 99 99 98 99 99 96 90 85 83 80 77 76 75 74 72 70 69 68 68 70 73 75
92 93 97 96 94 95 99 99 93 90 93 96 97 97 95 94 92 88 87 90 92 93 94 96 97 96 90 87 89 89 87 88 89 86 83 81 78 76 75 74 73 74 74 73 74 73 71 68 68 70 71 72 74 74 73 72 68 58 55 58 63 70 78 85 91 95 98 99 98 98 98 93 88 87 83 77 76 76 74 71 69 68 68 68 68 70 73
93 96 97 95 94 94 97 99 94 91 96 98 97 97 96 94 93 92 93 93 92 91 94 96 95 93 92 89 88 89 89 88 88 87 85 85 83 80 79 78 76 75 75 75 75 75 71 64 60 62 65 69 73 73 73 74 70 59 50 46 45 50 58 69 81 87 91 96 97 97 97 94 91 89 84 80 78 77 74 71 70 70 69 68 67 66 66
93 96 97 95 96 96 96 98 98 97 97 95 93 95 98 95 91 91 93 94 90 89 93 96 95 95 95 95 93 93 93 92 90 90 88 86 85 84 82 80 77 75 76 76 75 75 73 66 59 57 60 64 69 71 72 72 69 66 59 50 43 41 42 49 64 77 83 87 91 94 96 94 92 90 86 82 81 78 75 72 72 73 73 70 68 66 63
95 95 97 96 97 98 98 99 99 99 97 93 90 93 97 97 92 89 91 93 90 88 91 94 96 97 96 95 94 94 96 95 93 92 89 86 84 82 79 76 74 72 73 74 73 73 72 70 64 59 57 61 65 69 69 67 67 68 66 60 54 51 45 41 47 59 72 80 83 87 90 89 88 88 86 83 81 79 78 76 75 77 77 74 70 67 64
95 94 96 97 98 100 99 98 97 96 96 94 92 93 96 98 94 88 87 90 88 86 87 91 96 98 96 95 94 93 93 93 90 87 86 84 82 81 79 76 73 72 72 71 70 70 70 70 68 64 60 60 63 65 65 65 65 66 66 63 61 60 56 50 44 44 55 68 77 80 84 85 84 81 80 80 80 80 79 78 78 78 76 73 69 66 64
94 96 98 97 99 99 98 98 96 94 94 94 93 95 96 96 93 87 84 84 84 82 82 87 92 94 92 93 95 93 93 91 88 85 83 83 81 81 81 78 74 72 71 71 70 68 66 66 68 67 64 63 63 62 62 63 65 65 64 64 63 61 59 56 51 43 41 50 63 72 78 82 84 83 81 78 78 80 79 77 78 76 72 68 66 63 60
95 100 101 98 98 98 95 96 96 95 95 92 91 92 91 90 88 84 79 79 80 80 80 82 87 89 89 91 93 93 91 89 86 84 82 81 79 78 78 77 74 72 72 71 70 67 63 62 64 66 67 66 64 62 61 62 63 64 65 67 67 66 62 58 55 50 42 38 45 57 67 75 80 84 85 82 80 81 81 78 75 71 65 62 58 54 50
100 100 99 97 97 98 97 95 94 93 92 89 86 84 82 81 80 79 77 76 77 79 80 81 83 87 87 87 88 90 89 88 86 83 81 80 79 78 78 78 76 74 73 70 68 65 61 60 60 62 64 65 63 61 60 59 61 62 63 65 67 67 66 63 60 57 52 44 40 44 54 66 74 79 82 83 82 82 81 79 75 70 65 61 54 48 43
99 98 96 92 90 96 101 97 90 86 82 79 79 77 75 75 75 75 77 77 75 74 76 77 80 86 87 83 83 85 85 84 83 80 79 79 77 77 78 77 72 70 70 67 65 63 60 59 59 60 59 59 58 58 58 58 60 60 60 61 64 65 66 65 62 60 59 55 49 44 46 57 68 73 75 77 79 80 80 78 75 72 66 57 50 44 41
94 94 93 89 89 95 98 90 81 76 72 71 73 73 71 71 70 69 73 76 75 73 72 70 73 80 82 79 78 79 79 77 77 76 75 75 75 74 75 73 71 70 69 65 63 61 58 57 57 58 57 56 55 55 56 57 59 61 59 58 60 61 63 65 63 61 62 62 59 53 49 52 60 66 68 69 70 71 72 71 69 66 60 52 49 47 45
93 93 88 85 88 91 87 78 72 70 68 68 72 72 71 69 67 65 67 71 73 75 74 69 67 69 71 71 71 71 71 70 71 71 71 72 73 73 72 72 71 70 69 68 66 63 59 56 56 55 54 53 53 55 56 56 56 57 57 56 58 60 61 61 60 59 61 64 64 60 54 53 56 59 62 64 65 64 63 61 59 59 57 55 54 54 52
87 86 78 76 81 82 77 73 72 70 67 67 71 72 70 68 65 63 64 65 65 68 69 68 66 64 64 66 67 66 67 67 66 68 69 69 69 67 66 66 65 63 63 65 65 63 59 57 56 54 50 47 46 48 52 55 54 53 53 55 58 60 60 60 60 58 58 60 62 62 59 55 55 57 59 62 66 67 64 61 60 60 61 60 59 58 57
79 77 73 74 77 78 75 73 76 76 70 67 71 74 72 67 62 58 58 58 57 58 59 62 65 65 64 65 66 66 66 67 65 65 66 66 64 63 61 61 60 57 56 59 60 58 57 56 55 54 51 47 43 41 43 48 53 53 52 54 56 56 57 57 58 58 57 56 57 60 61 59 57 59 61 63 66 68 68 67 66 65 64 62 59 57 56
75 72 73 80 84 82 77 74 77 78 70 66 73 78 72 62 56 52 52 54 54 55 55 57 61 64 64 63 63 63 64 65 64 64 65 65 64 64 62 60 58 57 57 57 56 55 55 55 54 55 54 51 49 46 41 41 47 53 53 53 53 53 53 53 53 54 55 55 54 55 58 59 59 60 61 62 64 66 67 68 67 67 66 63 58 55 53
76 72 71 78 84 82 78 74 73 73 69 67 71 73 65 56 54 54 55 56 55 56 57 57 57 59 61 62 61 61 62 64 64 64 65 65 63 63 62 60 59 58 58 59 58 57 56 55 54 55 56 54 53 51 45 41 45 52 53 51 51 53 54 53 53 52 51 51 52 52 52 55 58 60 60 61 63 66 66 65 65 65 65 65 63 60 58
78 77 73 75 77 77 76 76 74 74 73 68 65 65 60 59 63 65 63 59 55 53 56 57 57 58 59 59 58 59 60 63 64 65 65 64 62 61 61 60 59 58 58 59 60 59 58 56 54 55 56 55 53 52 47 42 44 49 50 49 50 52 54 53 52 52 51 49 49 48 47 49 54 57 58 60 64 66 65 63 64 64 63 64 65 65 65
78 77 75 75 75 73 74 77 78 78 76 70 67 67 63 62 69 72 66 60 55 51 52 55 55 57 58 57 57 59 58 60 63 65 65 65 63 61 61 60 58 57 56 56 57 57 58 58 57 55 56 55 54 53 50 45 43 44 46 47 49 51 52 52 51 51 52 51 49 48 47 47 51 55 57 58 61 63 64 63 63 62 59 59 60 63 66
77 76 75 75 75 74 75 78 79 77 74 69 69 73 71 67 70 73 71 67 61 53 51 54 53 54 56 56 57 59 58 58 62 66 67 64 59 54 54 53 54 56 56 54 54 55 56 57 58 56 56 56 55 54 52 49 47 45 44 45 47 48 49 51 50 49 51 52 51 50 49 48 50 54 56 56 57 59 62 64 64 63 60 57 56 58 60
75 76 75 74 74 74 76 78 76 74 74 73 71 72 73 70 69 71 72 69 61 54 55 56 53 52 54 55 57 58 57 57 61 65 65 57 46 41 41 41 43 51 56 55 54 53 53 54 55 55 55 56 55 55 54 51 50 50 47 45 46 46 46 48 49 48 49 51 52 53 52 51 51 54 55 55 54 56 59 62 63 64 63 61 59 58 57
74 76 74 73 73 73 75 77 75 72 75 75 69 65 64 62 61 62 63 60 57 56 57 55 50 50 53 55 56 56 56 58 62 62 57 49 43 42 44 41 39 45 51 53 55 54 52 51 52 52 53 54 53 54 56 54 52 53 51 46 44 44 45 47 48 47 46 48 51 53 52 52 52 54 56 55 53 53 56 58 60 62 64 63 62 62 60
63 66 66 66 66 65 67 73 75 73 72 68 62 58 58 57 56 56 55 55 56 55 52 48 47 50 52 51 51 54 58 62 62 57 49 43 41 42 43 43 44 47 49 50 53 53 51 50 50 48 50 52 51 52 55 55 54 54 52 48 47 48 46 45 47 46 45 46 49 52 53 52 51 53 56 57 55 53 54 57 60 63 63 62 63 64 63
52 55 57 57 56 56 58 64 68 70 70 66 61 58 56 54 53 53 51 49 48 45 42 42 43 45 45 43 45 50 52 50 47 44 39 37 35 35 36 39 44 46 46 46 50 50 49 48 46 43 45 49 50 51 54 55 54 55 53 50 50 51 48 44 44 45 45 46 47 51 53 53 51 50 51 54 56 55 55 58 63 64 62 61 63 65 63
50 52 55 55 53 51 52 55 57 58 59 59 58 58 55 52 50 48 45 43 40 37 38 39 38 36 36 35 35 37 36 32 31 33 32 31 31 31 31 32 33 35 37 40 43 44 43 43 42 40 40 42 45 48 52 53 53 55 55 53 50 49 49 46 44 44 45 45 45 47 51 52 52 50 48 49 52 53 55 59 63 63 59 59 63 65 62
47 48 50 51 50 47 48 50 49 47 49 50 50 51 52 49 45 41 39 39 38 36 36 34 30 28 27 26 25 27 28 27 28 30 30 30 31 31 30 30 30 32 34 37 38 39 39 39 39 38 38 40 43 45 47 49 49 51 54 53 50 48 49 48 46 46 46 45 44 45 48 50 51 49 47 47 47 48 51 56 61 61 57 57 61 63 62
44 43 43 45 46 45 46 46 42 37 39 43 43 42 42 41 40 38 37 37 37 35 33 29 24 21 22 24 25 27 28 29 29 30 30 31 31 31 32 32 32 32 33 34 36 38 39 39 39 38 38 41 45 46 47 48 49 50 51 52 51 51 50 49 48 48 47 46 45 44 46 48 49 48 47 47 47 48 49 52 56 58 57 56 58 61 61
46 46 43 43 45 43 42 43 39 34 34 38 41 40 40 39 38 38 37 37 36 35 31 26 21 19 22 26 28 29 29 30 30 31 31 31 32 33 35 35 35 35 34 33 33 34 36 39 41 40 39 40 41 41 42 44 47 49 51 52 53 54 53 50 50 48 46 46 46 45 45 47 47 47 47 48 48 48 49 49 51 54 54 54 55 57 59
48 46 42 42 44 42 41 43 42 36 33 34 37 39 40 39 38 38 37 36 35 34 31 26 22 20 22 26 28 29 30 30 29 29 30 31 31 33 35 36 36 35 34 32 32 33 35 37 38 38 40 41 38 36 39 43 46 49 50 51 55 57 55 53 52 49 45 43 44 44 44 45 45 46 47 48 47 48 49 49 50 51 52 53 54 55 55
43 41 39 39 41 42 42 42 40 38 35 34 34 36 38 39 39 38 36 32 31 31 30 26 22 21 22 25 27 28 29 30 30 30 31 32 32 34 36 37 37 34 32 32 33 33 34 35 35 35 39 41 38 36 40 46 49 51 52 53 56 58 56 53 52 49 46 44 43 42 42 43 44 44 45 46 47 49 49 49 50 50 50 52 53 53 53
40 37 38 39 40 42 41 39 39 39 38 36 35 36 38 39 39 39 35 31 30 30 29 26 24 25 27 29 30 32 32 32 33 33 33 33 34 35 37 38 38 36 34 33 33 32 33 35 37 38 40 42 42 41 42 46 50 53 57 58 59 58 56 54 51 48 47 47 45 43 42 42 42 42 43 43 44 47 48 48 49 49 48 48 50 50 51
37 35 37 39 39 39 38 36 37 39 39 37 36 36 36 38 40 39 37 35 33 32 32 31 31 32 33 33 34 35 34 33 34 35 35 35 34 35 37 39 39 38 36 34 33 31 32 37 41 40 38 40 42 40 38 42 49 56 60 61 60 58 57 56 54 51 50 49 47 45 45 44 43 42 41 39 39 42 45 46 47 47 46 46 46 46 48
35 33 35 37 36 35 35 36 38 38 36 35 35 34 36 38 38 37 37 36 34 34 35 35 35 35 35 35 35 35 34 34 35 36 37 37 37 37 38 39 39 38 37 35 32 30 32 39 43 38 32 32 33 31 30 36 46 55 61 62 61 59 58 57 56 55 54 53 51 49 48 46 44 44 42 40 38 38 39 40 41 43 44 44 44 44 45
35 33 33 34 34 34 35 36 37 34 32 33 35 35 36 37 36 36 36 35 34 35 36 36 36 36 36 35 35 35 35 35 37 38 38 39 39 40 39 39 39 39 37 34 32 30 31 38 42 38 29 26 26 25 24 27 36 47 56 59 59 58 58 57 56 55 55 56 55 53 51 48 46 44 44 44 44 43 42 41 39 39 40 41 42 43 44
35 33 31 30 31 31 30 30 31 31 31 34 36 36 37 37 36 35 36 35 35 36 37 36 36 37 37 36 37 37 38 38 39 38 39 39 40 40 40 40 40 39 37 34 33 31 31 36 41 39 33 28 27 27 25 24 28 39 51 56 57 57 57 56 54 53 55 57 57 55 54 54 53 49 47 47 46 45 47 46 43 41 40 39 40 41 42
34 33 30 28 29 29 28 29 32 35 36 37 37 36 36 37 36 35 35 36 37 37 37 37 38 38 38 39 39 39 39 40 40 39 40 41 41 40 41 40 40 40 37 35 34 33 32 35 38 38 34 31 31 31 29 27 27 35 47 56 58 57 55 53 51 49 50 51 51 49 48 50 51 50 49 48 46 44 44 45 45 45 45 42 40 41 40
34 33 31 29 30 30 30 32 35 38 38 37 35 34 34 35 35 35 36 38 39 39 39 39 40 39 39 40 41 40 40 41 40 40 41 42 41 41 42 42 42 41 38 36 34 34 34 35 38 38 37 36 35 34 33 32 30 31 38 47 52 53 52 48 45 43 44 45 45 44 42 42 42 43 44 44 44 45 45 45 45 48 49 46 44 42 41
33 33 32 32 32 33 32 33 35 36 35 34 33 33 33 33 35 36 37 38 39 40 39 40 40 40 40 41 41 41 41 42 41 41 42 42 41 41 42 42 42 42 40 38 36 35 34 35 37 38 39 40 40 39 38 37 35 32 33 36 40 44 45 42 38 37 38 39 40 41 42 43 43 42 40 39 40 43 45 45 47 48 49 47 47 47 47
34 34 35 35 35 33 32 32 33 32 31 31 32 33 33 34 36 38 39 39 39 41 41 41 42 42 41 42 42 42 41 42 42 43 42 42 42 43 43 43 44 44 42 40 38 37 35 36 38 40 42 44 44 43 42 41 40 38 36 34 34 35 36 36 34 35 36 36 37 39 41 43 44 43 41 41 42 41 39 39 43 47 48 48 49 51 52
34 34 35 34 32 31 30 31 30 29 30 32 32 32 33 35 36 38 39 40 40 42 43 43 42 42 42 42 42 42 42 42 43 43 43 43 43 43 43 44 45 45 45 44 42 39 37 37 40 43 45 45 44 44 44 43 42 41 38 36 34 33 33 34 34 35 35 37 38 39 42 44 44 42 40 40 40 37 34 34 38 44 47 49 49 50 53
29 31 32 31 30 30 30 31 30 30 31 32 32 32 34 36 37 39 41 41 39 41 43 43 43 43 43 42 42 43 42 42 42 42 43 43 43 43 43 44 45 45 46 46 43 40 39 40 43 45 46 45 44 43 42 42 42 42 41 38 35 33 33 33 33 33 35 37 38 38 40 42 40 37 36 36 35 34 35 38 41 44 46 47 48 51 54
Wind_Speed
8 6 6 7 8 6 6 6 5 6 7 8 7 3 2 1 4 5 8 10 8 6 6 5 5 5 6 6 5 4 4 4 5 6 7 8 8 9 10 10 8 8 7 9 12 16 18 20 21 22 25 26 26 26 26 27 27 27 25 21 18 16 15 14 14 14 14 15 16 17 20 23 24 24 26 28 28 28 28 28 27 26 25 25 24 23 21
8 8 6 5 8 7 6 8 8 6 8 10 10 6 4 5 5 8 13 12 6 4 5 5 5 5 4 5 6 5 5 5 6 7 7 7 7 8 9 9 8 7 9 12 16 18 19 21 21 22 23 24 26 28 29 28 28 27 25 22 20 18 16 15 13 13 13 14 17 18 22 26 26 27 29 29 29 27 27 29 28 26 25 25 23 22 21
6 7 6 6 7 9 8 9 9 7 6 8 8 6 6 8 7 9 12 10 5 2 4 6 5 4 4 5 6 6 6 6 7 7 7 7 7 8 8 9 9 10 12 15 17 18 19 21 22 23 23 24 25 28 29 29 28 27 25 23 21 18 16 14 11 11 13 15 18 21 24 27 28 29 31 30 29 27 25 28 29 27 25 25 23 22 20
1 2 4 5 6 9 9 8 9 9 7 5 5 4 4 3 8 12 10 5 3 4 5 6 5 4 6 6 5 6 5 6 7 7 7 7 7 8 9 10 11 11 12 14 15 16 18 21 22 23 23 23 24 26 27 27 27 26 25 24 23 20 16 13 7 9 13 15 20 23 24 26 27 30 32 30 28 25 25 28 29 27 26 26 23 21 20
2 1 1 3 3 4 4 4 6 5 3 5 6 6 6 4 6 9 5 3 5 6 6 5 5 5 6 5 4 5 5 5 6 6 6 7 7 8 8 9 10 10 11 13 15 16 18 20 21 22 22 22 22 23 23 25 26 26 26 25 25 23 20 16 9 5 12 17 23 24 24 25 26 28 29 27 26 26 28 30 30 28 28 26 24 22 21
3 1 3 3 2 1 1 3 4 2 3 8 8 6 6 6 5 5 5 6 7 6 5 5 6 5 5 4 5 5 4 4 4 4 6 7 7 8 8 7 8 10 13 15 17 18 19 20 20 20 21 21 21 22 23 25 26 27 27 26 26 26 24 20 13 4 8 17 24 25 24 24 25 25 24 24 25 28 32 32 30 29 28 26 25 23 22
4 1 3 2 1 2 1 2 3 4 7 11 13 10 8 8 9 10 10 9 7 6 6 6 6 6 5 5 6 5 5 4 4 4 6 7 7 7 7 7 9 12 15 17 18 20 20 19 19 20 22 22 22 22 23 25 27 27 27 28 28 28 27 23 16 7 3 11 19 24 25 25 24 23 23 24 24 27 31 32 31 31 29 28 27 25 24
3 2 2 2 2 1 0 2 3 4 4 6 9 9 7 6 7 9 10 8 8 8 7 6 6 6 6 6 5 4 4 5 5 4 5 6 6 6 7 8 10 13 15 16 17 18 19 19 20 21 21 21 20 22 24 26 27 28 29 30 30 29 28 26 20 12 9 10 13 21 27 27 26 24 24 24 23 24 28 31 31 32 31 29 29 28 26
2 3 2 1 1 1 1 0 1 2 2 2 1 3 3 2 3 7 9 9 9 8 7 6 5 5 4 4 4 3 4 5 5 5 6 6 6 7 9 10 11 13 14 15 16 17 18 20 21 21 20 20 20 23 26 27 28 30 31 31 30 29 28 27 23 16 13 14 15 20 26 28 27 26 26 25 24 25 28 30 31 32 31 29 28 28 26
2 4 2 1 2 3 3 3 2 2 1 3 2 2 3 2 4 7 10 11 10 9 8 6 5 3 1 2 2 3 4 5 5 5 6 8 8 10 12 13 14 15 15 15 16 17 19 21 21 20 20 20 21 24 26 27 28 31 32 31 30 29 28 26 24 20 16 18 17 19 23 25 26 26 26 26 26 27 29 30 31 31 30 28 27 26 26
2 4 3 2 3 2 2 3 1 1 1 2 1 2 2 3 6 7 9 11 10 9 8 7 5 2 1 1 1 2 3 4 5 5 6 9 10 12 13 13 14 15 15 16 18 20 21 21 20 20 19 21 23 24 25 27 29 31 30 29 28 28 27 25 25 23 20 20 21 20 21 22 25 27 27 27 26 26 27 30 31 30 29 28 26 25 24
3 4 2 1 1 1 1 1 2 3 3 2 1 1 1 4 7 7 8 10 9 8 7 5 3 1 1 2 2 2 3 4 6 6 6 8 11 12 14 14 14 15 17 19 21 22 22 20 19 19 20 22 24 23 24 27 29 28 27 27 27 27 26 26 25 24 23 22 22 23 24 24 26 28 28 29 28 27 26 29 32 32 30 29 27 25 23
3 4 2 0 1 1 1 2 4 4 3 0 2 2 2 5 7 6 8 9 8 6 5 3 1 1 2 4 4 3 3 4 6 7 8 10 11 12 14 15 16 17 18 20 22 22 21 20 20 19 20 23 23 23 25 27 26 24 25 28 29 29 28 26 26 25 24 22 22 23 25 27 28 29 28 28 27 26 25 27 31 32 30 29 29 27 24
3 3 3 0 2 1 1 2 4 3 1 1 2 1 3 6 6 5 6 6 6 5 4 4 4 4 5 6 5 4 4 4 5 8 10 11 12 13 14 16 18 18 19 21 22 22 22 22 21 21 22 22 22 22 25 25 23 22 25 28 29 30 29 28 27 26 24 23 22 22 23 25 27 27 27 25 23 22 22 24 27 29 28 27 27 27 25
2 3 3 1 1 0 1 2 2 1 0 2 3 4 5 6 7 7 6 5 6 7 7 6 6 6 6 6 5 4 4 4 6 8 10 11 12 13 15 16 17 18 19 20 21 21 21 22 22 22 24 23 22 23 23 21 21 24 28 29 30 31 31 30 28 26 25 24 23 22 21 23 25 25 25 25 24 22 21 21 24 26 25 24 25 25 24
1 3 3 2 2 2 2 1 1 2 2 3 6 6 5 5 6 6 6 6 6 7 9 8 7 7 6 5 4 4 4 4 7 9 10 12 13 14 16 17 17 18 19 19 19 19 20 21 22 22 23 23 24 25 23 19 19 23 27 30 32 32 31 30 28 27 26 24 23 22 22 22 24 24 24 24 24 22 21 21 23 24 23 23 24 24 23
3 2 2 1 2 1 1 2 3 5 7 6 7 8 7 6 5 5 6 7 7 7 9 8 6 6 6 5 4 4 4 5 7 8 10 11 12 13 15 16 17 18 18 18 18 19 19 19 20 21 22 22 24 25 23 20 20 22 24 28 31 32 32 30 28 25 25 25 24 22 22 22 23 23 23 23 24 23 22 23 24 24 22 22 24 25 24
5 5 4 2 2 5 7 7 6 7 7 6 7 8 7 6 5 5 6 8 8 6 7 8 6 5 5 5 4 4 5 6 7 9 10 11 12 13 14 14 14 15 16 17 18 19 19 18 17 18 20 21 22 22 22 21 22 22 23 26 28 29 31 31 29 26 24 24 24 23 21 21 22 22 23 24 25 23 23 23 23 22 21 22 23 23 21
3 3 3 3 6 7 7 8 8 8 8 7 6 7 7 6 7 7 7 8 8 7 6 7 7 6 5 5 4 4 4 5 7 8 9 10 11 12 13 13 13 13 14 15 16 17 18 18 17 15 16 17 18 19 19 20 21 22 24 25 26 27 28 30 30 28 25 23 23 24 23 21 20 20 21 22 22 21 21 21 20 20 20 20 20 20 19
3 5 5 5 8 8 7 8 7 7 8 8 7 7 8 8 8 9 9 8 7 5 5 6 6 5 4 4 4 3 3 4 5 6 7 9 10 11 11 12 12 12 12 13 14 15 16 18 19 17 15 14 14 15 16 16 17 19 21 23 24 25 26 27 27 27 26 24 22 23 24 23 21 19 18 18 19 19 18 18 18 19 19 18 17 17 17
6 6 7 7 8 9 8 8 7 6 7 9 9 8 9 9 9 9 9 9 8 7 7 6 6 5 4 4 4 4 3 3 3 4 5 6 6 7 8 9 11 12 12 13 14 13 12 14 17 18 17 16 15 14 15 15 15 17 18 19 20 22 23 24 24 25 25 24 22 21 21 22 22 21 18 16 16 16 16 16 17 17 16 16 14 14 15
4 4 5 6 6 6 5 6 8 7 7 9 10 9 8 8 8 8 8 9 9 9 9 9 7 5 4 5 5 5 4 4 5 4 4 4 4 4 6 8 9 11 12 12 14 14 12 12 14 15 16 16 16 15 15 13 12 14 16 16 17 18 19 21 22 21 22 22 21 19 17 18 20 21 20 18 16 16 15 15 15 14 13 13 12 12 13
4 5 5 5 6 7 6 6 7 7 7 9 10 9 8 8 8 9 8 7 7 6 6 9 9 7 6 7 8 6 5 6 6 5 5 5 5 4 5 6 7 8 9 10 12 14 14 14 13 12 12 13 13 14 13 11 10 10 12 13 15 15 16 17 18 18 18 18 19 18 16 15 15 17 18 18 17 16 15 14 13 12 11 11 10 10 12
7 7 6 6 9 9 8 7 8 7 8 9 8 8 8 8 10 12 11 8 8 7 6 6 10 11 9 9 9 7 6 6 6 6 5 4 3 1 2 2 3 4 5 6 8 10 12 13 13 12 11 10 10 11 12 12 11 11 11 12 13 13 13 14 14 15 15 14 15 16 15 14 13 14 15 17 17 15 14 13 12 12 11 11 11 12 13
8 7 7 8 10 9 8 7 7 8 11 12 8 7 10 11 12 14 13 11 12 12 10 9 10 12 12 10 8 8 7 6 7 7 5 3 3 3 4 4 3 3 2 3 4 6 9 10 12 12 11 11 11 10 10 10 11 12 13 13 13 12 12 11 12 13 12 12 13 13 13 13 13 12 13 15 16 15 15 14 15 14 13 12 12 12 12
9 9 10 10 9 8 7 7 6 6 10 12 9 8 11 12 12 13 13 12 13 15 15 14 12 12 13 13 12 12 12 10 9 9 8 8 9 9 10 10 10 8 6 6 6 6 8 9 11 12 13 13 14 13 12 10 10 11 13 14 14 13 13 11 10 10 10 10 11 11 11 11 11 12 12 12 13 15 16 17 17 16 14 12 11 11 12
10 9 10 11 9 6 5 5 5 6 9 12 11 9 10 13 14 13 12 11 12 13 14 14 13 12 13 14 13 14 14 13 12 12 11 10 10 9 10 12 13 12 9 7 7 7 7 9 11 12 14 14 14 14 14 13 12 11 12 13 13 13 13 13 12 10 9 8 8 9 9 9 10 11 11 11 13 15 17 17 17 17 16 14 13 13 14
8 5 5 8 8 7 5 7 10 10 10 12 12 12 12 13 13 11 10 10 11 11 11 11 11 11 10 10 10 11 10 10 11 10 9 9 8 7 8 10 12 11 9 8 7 7 8 10 11 12 13 13 13 13 13 13 13 11 11 12 13 12 13 14 15 14 12 10 8 7 7 7 7 8 10 11 14 16 17 18 18 19 19 18 17 16 17
6 4 5 6 8 9 9 10 10 9 8 10 11 11 11 11 9 7 7 7 8 9 9 7 7 7 6 6 7 9 9 8 8 8 8 7 7 6 6 8 9 10 10 9 8 7 6 7 8 10 11 11 12 12 11 11 11 11 10 11 12 12 13 13 14 14 14 13 10 8 7 7 6 6 8 10 13 15 17 17 18 19 20 21 20 21 21
5 6 6 7 8 11 10 8 6 5 6 8 9 8 8 8 6 4 4 4 6 7 6 5 5 4 3 4 5 6 7 6 6 6 6 5 5 5 5 6 7 8 9 10 10 9 7 7 7 8 9 10 11 12 11 10 10 10 9 10 11 11 12 12 12 12 13 13 12 10 8 7 6 6 7 8 11 15 16 16 17 18 19 20 20 21 21
6 7 7 7 7 8 7 5 5 5 5 7 7 5 6 7 5 2 2 3 5 7 7 6 5 4 3 4 4 4 4 4 4 5 5 3 3 4 4 4 5 6 7 7 8 8 8 7 8 8 8 9 10 10 11 10 9 9 9 9 10 10 11 11 12 12 11 11 12 11 9 8 7 6 7 8 10 13 15 15 15 15 16 17 18 18 19
7 8 8 6 6 7 6 4 5 4 3 5 6 5 6 6 5 5 5 6 8 9 8 8 9 8 7 5 4 3 3 3 4 5 4 2 3 4 4 4 3 3 3 3 4 5 5 6 7 7 7 8 8 8 9 10 9 9 9 8 9 10 10 11 12 12 10 9 10 11 11 10 8 6 8 10 10 12 13 13 12 11 12 12 14 15 15
7 6 6 5 5 5 5 4 4 5 5 5 6 8 9 9 8 8 8 9 10 10 11 11 11 10 8 7 6 6 6 6 6 4 2 1 2 2 3 2 1 1 1 1 1 2 3 5 5 5 5 7 6 6 6 7 8 9 9 7 7 9 10 9 9 10 10 9 8 9 10 10 9 7 6 10 11 11 11 10 9 7 6 6 7 9 11
10 8 8 9 9 9 8 6 4 5 5 6 7 9 10 10 9 9 9 10 11 11 11 11 9 8 7 6 6 7 7 7 6 5 2 0 1 2 2 1 1 1 2 2 3 3 3 4 5 5 5 5 6 5 5 5 6 7 8 7 7 9 11 10 7 7 9 10 9 8 8 8 9 10 6 5 9 11 10 9 6 4 4 4 5 8 10
15 12 13 15 15 13 12 10 8 7 7 6 6 9 10 10 10 11 11 12 13 12 11 10 9 8 7 7 8 8 8 7 5 4 2 0 1 2 3 2 1 2 2 3 4 4 4 4 4 5 5 5 5 5 5 4 5 6 6 6 8 10 13 11 7 6 7 9 10 9 7 5 6 8 8 4 4 9 11 9 6 5 5 5 7 10 11
14 12 11 13 13 12 12 13 13 13 12 11 11 12 12 13 14 14 14 14 14 14 14 13 12 10 10 9 8 7 6 4 3 2 1 1 2 3 4 4 3 4 4 2 1 2 3 4 5 6 7 7 6 5 5 5 6 7 6 7 8 10 12 12 9 6 5 7 10 8 4 3 4 4 5 4 1 3 7 8 7 6 6 6 8 11 12
15 15 12 12 12 13 14 16 17 17 16 15 15 16 16 17 17 15 14 15 17 17 16 15 13 12 10 9 7 5 4 3 3 2 1 1 2 3 4 4 4 5 5 4 2 3 4 5 5 7 8 8 6 5 5 5 6 6 6 7 8 9 10 11 11 8 5 6 7 7 2 1 1 3 3 3 2 1 3 5 5 6 6 6 7 11 12
16 17 18 17 17 17 18 18 19 20 18 15 14 15 17 17 17 16 15 18 19 18 16 14 13 11 9 7 6 5 4 4 3 3 3 2 2 3 4 3 3 4 4 3 3 3 4 4 5 6 7 8 6 5 4 5 5 5 6 7 8 9 8 8 9 10 8 6 7 5 3 2 3 2 3 3 3 1 2 3 4 4 6 6 7 9 12
13 15 18 19 19 19 19 18 19 21 20 16 14 14 16 18 18 17 17 18 18 17 15 14 13 11 9 8 7 7 6 5 5 5 4 4 5 6 7 6 6 6 6 5 5 4 3 3 5 6 6 6 7 6 6 6 6 6 6 7 8 8 8 7 7 9 10 8 7 8 7 6 6 6 4 3 2 1 2 3 4 5 7 7 5 7 11
14 15 18 19 19 19 20 19 18 19 20 18 17 17 18 19 20 18 17 17 17 17 16 15 14 13 12 12 11 9 7 7 7 6 6 6 7 8 8 7 5 4 5 5 5 4 4 4 4 5 6 6 7 6 6 6 7 6 6 7 7 7 7 7 6 7 9 8 6 6 9 9 9 8 7 5 4 3 3 4 5 7 8 7 5 6 10
16 18 20 20 19 19 20 20 19 18 18 19 19 19 20 21 21 19 17 16 17 17 17 16 16 15 14 13 12 10 9 8 8 8 8 8 8 9 9 7 4 2 3 4 4 4 4 5 5 6 6 6 6 5 5 6 7 6 5 5 5 6 6 6 5 4 5 6 6 5 6 9 11 12 10 9 8 7 6 6 7 8 8 7 7 7 9
18 20 19 19 19 19 20 20 19 18 17 18 19 19 20 21 21 20 18 17 17 17 17 16 14 13 12 11 10 9 9 8 8 8 9 9 8 9 9 8 4 3 4 4 4 4 5 5 5 5 6 5 5 5 6 7 7 6 4 4 4 5 5 5 4 4 4 4 5 6 6 7 9 11 13 13 12 11 9 9 10 11 11 10 9 9 10
20 20 19 18 19 20 21 20 19 18 17 18 18 19 20 21 21 19 17 16 16 16 16 15 14 13 11 10 9 10 10 8 7 6 7 8 8 9 10 8 5 4 6 6 4 4 4 3 3 4 4 4 5 6 7 7 7 6 4 4 4 5 4 4 4 4 4 4 5 6 8 9 8 7 8 11 13 14 13 12 12 13 13 14 13 12 12
21 20 19 19 20 21 22 21 20 19 19 18 18 18 20 20 19 18 17 16 15 14 14 13 14 14 13 12 12 12 11 8 6 6 6 6 7 7 8 7 6 6 7 8 6 4 4 4 2 3 4 3 4 5 6 6 6 6 6 5 5 5 4 4 4 5 5 5 5 5 7 9 10 10 8 6 9 12 13 14 14 14 14 15 16 16 16
20 19 19 18 19 20 22 21 21 21 21 20 19 19 19 18 17 16 16 16 16 15 14 13 12 12 12 12 11 9 8 7 6 6 6 6 5 5 5 5 5 6 7 8 7 5 5 5 3 2 3 3 4 5 6 6 6 6 7 6 6 5 4 4 5 7 8 7 7 5 5 6 8 10 10 10 9 9 11 12 14 15 15 15 15 17 18
19 19 20 20 19 20 21 23 23 22 21 19 17 16 16 16 15 15 14 14 14 13 12 11 11 10 9 9 9 8 7 7 7 6 5 5 5 3 2 3 4 5 6 8 7 6 5 5 5 3 2 3 4 5 6 6 6 6 6 5 5 4 4 4 6 8 8 8 8 8 8 8 9 9 9 11 12 12 12 13 13 14 15 15 14 14 15
21 21 21 21 19 19 20 21 20 19 18 17 16 15 15 15 15 14 12 10 10 9 9 9 9 8 8 8 8 8 7 7 6 6 6 6 6 4 3 2 3 4 7 8 7 6 5 6 6 5 4 4 4 5 6 6 7 7 6 5 5 5 5 6 6 8 8 7 7 7 7 8 9 9 9 10 11 12 14 15 14 12 13 14 13 13 14
24 23 22 22 21 20 19 19 19 18 18 18 17 16 15 14 15 14 12 10 9 8 8 8 7 7 7 7 7 6 6 6 6 6 6 7 7 6 5 4 4 5 7 9 8 7 6 6 6 6 6 7 8 8 8 7 7 8 7 7 6 7 7 7 7 8 8 7 6 6 6 7 7 7 7 8 9 11 13 14 13 12 11 12 13 15 15
24 24 22 22 21 20 19 19 18 17 16 16 15 14 13 13 14 15 14 12 10 9 9 8 7 7 7 7 6 6 6 7 7 6 5 6 6 6 6 6 6 7 8 10 10 9 8 7 7 7 8 9 10 11 11 10 10 9 9 9 8 9 9 9 9 9 9 9 8 8 8 8 8 7 7 7 8 9 11 12 13 13 13 13 14 14 13
23 22 21 19 18 16 15 15 15 14 13 12 10 9 10 13 16 16 15 12 11 10 10 9 8 8 7 6 5 5 5 5 6 6 5 6 6 6 6 7 7 8 9 10 10 9 8 7 7 7 8 9 10 10 11 11 11 11 11 10 9 10 11 11 11 10 10 11 11 10 10 10 9 9 9 9 10 11 12 12 12 13 13 14 14 14 13
22 21 20 18 16 14 13 12 11 11 12 12 11 9 11 16 17 16 15 14 12 11 10 10 9 7 6 6 5 5 5 5 5 5 5 5 5 5 5 6 7 8 9 10 10 9 8 8 7 8 9 9 9 9 9 9 9 10 10 10 10 10 11 11 12 12 12 11 11 11 11 10 9 9 9 10 12 13 14 14 12 12 12 13 13 12 12
22 20 18 16 14 13 12 11 11 13 16 16 14 14 16 17 16 14 14 14 13 12 12 12 11 8 7 6 6 7 6 6 6 6 5 5 5 5 5 6 6 7 7 7 8 8 8 8 8 8 8 9 8 8 9 9 10 10 10 10 10 10 10 10 12 13 12 11 10 10 9 8 8 9 11 12 12 13 13 12 11 10 11 12 12 12 13
Wind_Direction
42 43 52 66 80 79 67 57 25 13 37 61 78 75 290 162 142 172 164 142 133 130 116 108 109 104 105 106 95 74 50 32 25 25 25 20 9 2 1 356 352 357 360 0 2 3 2 360 355 353 355 355 353 352 352 355 358 358 355 349 335 318 307 294 277 263 250 237 222 206 196 190 184 185 187 184 180 179 175 174 178 182 183 186 186 182 181
41 21 16 55 89 90 55 42 33 29 56 72 75 69 58 69 94 130 130 120 98 85 104 106 98 94 104 105 91 73 51 34 29 28 25 20 10 3 357 346 342 356 3 3 5 5 1 358 356 354 354 355 355 355 355 357 0 1 359 355 346 332 317 300 279 262 251 232 215 201 187 180 179 182 183 180 179 179 176 177 182 184 183 184 184 182 180
27 10 31 54 80 93 71 38 24 22 43 62 63 63 67 66 78 101 110 109 95 82 106 103 96 92 82 70 66 64 49 31 32 28 19 16 13 6 355 348 353 3 5 2 1 360 357 356 357 356 356 358 360 359 359 359 1 4 5 3 359 352 335 311 278 249 243 224 201 188 179 173 174 180 180 177 178 180 178 179 184 184 183 182 181 181 179
23 4 70 63 64 80 71 38 16 11 21 52 61 52 47 90 125 119 113 121 141 145 126 106 91 80 75 66 59 63 51 33 32 26 15 13 13 9 3 1 2 2 359 355 352 353 356 357 358 358 357 360 2 2 0 0 4 9 13 12 10 7 357 339 302 243 233 209 182 179 178 170 169 174 174 175 180 180 173 175 180 181 180 180 178 177 176
148 216 49 25 29 66 61 10 349 347 26 79 70 42 28 49 130 133 133 146 135 133 134 120 98 80 73 64 55 55 51 42 35 25 17 14 12 12 7 4 3 356 350 350 349 351 357 359 360 0 1 2 2 3 4 7 12 17 19 19 17 15 11 4 351 258 217 188 170 173 175 168 166 169 169 173 179 175 168 171 174 172 172 172 170 170 170
139 231 348 24 45 146 244 316 329 336 94 93 80 55 38 47 84 108 105 111 118 125 132 124 111 94 74 59 50 42 38 39 30 21 20 16 13 11 4 1 359 353 351 353 353 357 1 3 4 7 10 10 8 11 14 18 21 22 21 22 22 20 18 15 8 332 205 178 167 165 165 162 162 163 163 167 170 167 165 166 165 162 161 160 157 158 160
128 115 35 68 201 217 230 331 14 60 90 94 87 70 54 66 91 103 105 113 119 116 111 108 106 100 88 73 57 40 33 35 28 24 21 18 14 9 3 360 354 353 355 355 355 359 2 4 9 15 18 18 15 18 23 25 26 25 24 25 25 24 23 22 20 24 138 162 157 152 151 152 153 152 153 156 157 156 157 159 158 155 152 150 149 147 148
119 116 97 146 213 223 56 350 13 49 64 82 82 67 52 64 96 107 109 114 116 113 113 113 110 112 103 82 66 49 41 39 35 28 23 19 10 360 360 358 352 354 358 357 358 1 3 9 17 21 23 22 19 22 29 30 28 28 28 27 25 24 25 25 25 42 90 116 126 132 136 139 139 139 142 145 147 147 145 145 144 142 141 141 142 141 140
121 119 101 99 143 222 210 47 42 58 24 338 38 76 76 80 116 122 121 125 129 126 125 126 132 138 116 75 53 39 40 42 40 34 28 22 9 2 7 7 4 6 9 11 13 13 14 18 22 24 27 27 26 28 33 32 30 32 32 27 24 24 26 29 29 41 81 101 103 114 123 126 128 132 135 136 138 139 136 132 130 131 132 131 132 136 139
106 110 103 122 180 213 175 140 143 135 165 271 279 98 103 129 147 141 135 138 142 140 140 150 168 172 121 50 14 21 33 34 32 30 26 25 22 18 15 14 14 17 19 22 25 28 28 26 24 27 32 33 34 34 34 33 33 34 32 27 25 25 27 33 37 43 71 97 100 102 112 118 122 127 130 130 131 132 130 127 124 123 125 125 124 128 134
128 125 133 177 199 201 136 142 189 238 264 266 259 90 112 152 156 151 141 142 150 155 156 167 185 197 203 214 258 28 34 27 24 26 24 25 28 29 26 21 17 18 23 30 35 37 35 28 25 29 35 39 40 37 35 36 37 36 33 29 29 30 32 40 46 49 64 88 100 102 106 112 119 122 124 125 126 125 121 121 120 119 119 119 116 116 122
140 122 119 201 205 160 129 219 277 294 291 275 142 163 213 156 152 155 149 149 158 166 167 173 191 242 222 180 147 70 50 37 33 32 28 27 28 31 32 29 28 30 33 36 38 37 33 29 29 32 38 43 44 39 38 40 38 36 36 37 38 39 42 48 53 56 62 75 89 99 104 108 111 114 115 116 117 113 107 108 113 115 114 113 109 107 110
117 112 111 283 270 179 159 270 290 293 295 247 161 205 184 137 140 149 151 153 159 166 170 162 134 28 69 106 108 85 59 46 39 35 39 44 43 39 37 35 37 39 39 40 41 38 35 36 36 36 41 46 44 41 42 42 38 36 41 45 46 47 49 51 53 59 66 72 79 89 100 108 108 109 111 111 110 109 104 102 105 107 107 106 104 102 103
124 119 107 71 282 179 124 288 284 278 258 171 166 146 107 117 122 119 124 138 139 128 114 107 107 96 86 90 91 74 54 49 45 39 43 49 46 42 41 40 39 40 40 41 42 39 38 40 39 39 43 44 42 43 44 41 39 42 47 49 49 49 50 51 52 56 66 75 81 87 97 107 110 110 113 116 115 116 114 107 104 103 103 103 101 99 99
115 95 93 130 227 178 19 317 281 252 178 151 130 103 91 99 103 97 93 101 113 114 109 106 109 103 91 88 88 78 60 51 51 46 46 47 42 38 38 37 37 39 38 38 38 37 38 41 40 40 42 40 39 41 41 40 45 50 51 51 50 49 50 50 51 55 63 72 83 89 96 105 110 112 117 121 124 125 123 116 108 106 106 107 106 103 100
126 139 157 196 248 268 289 279 157 100 91 114 118 111 99 93 98 101 97 92 99 112 115 112 107 103 97 91 89 86 71 56 53 51 49 47 44 41 39 38 39 40 39 36 37 38 39 40 41 42 42 42 41 39 38 41 49 53 54 54 52 50 49 49 49 51 57 66 77 86 92 100 106 111 116 120 120 120 121 120 116 112 112 114 113 108 104
95 120 162 227 270 307 31 65 79 82 83 91 102 106 104 101 102 106 108 105 102 107 113 112 105 101 100 96 91 86 76 65 60 58 56 53 50 48 47 46 45 44 41 38 35 35 34 36 39 43 45 45 44 41 41 46 50 52 55 57 56 54 52 51 49 50 54 59 67 77 86 93 96 100 107 111 110 111 114 116 115 112 111 113 113 110 107
103 68 49 51 65 64 67 68 69 75 79 85 96 100 101 103 103 106 112 116 116 115 115 114 110 110 111 107 102 96 88 77 71 69 64 57 53 50 47 47 46 43 42 40 36 33 31 31 37 44 48 50 48 45 46 49 51 53 55 57 59 59 56 54 50 48 52 58 62 68 77 87 92 96 101 106 108 110 112 112 111 112 112 112 111 109 108
136 69 49 54 66 74 80 79 76 75 75 75 84 96 102 105 105 107 112 116 119 120 118 118 121 125 125 117 107 96 93 87 78 74 69 60 54 49 42 42 42 38 36 36 34 31 29 30 34 41 46 49 49 47 47 48 50 54 56 56 56 57 58 58 54 50 49 55 62 66 71 79 91 99 105 111 114 115 115 116 116 116 116 115 115 113 112
89 94 108 92 72 68 72 79 83 86 85 84 83 89 100 104 102 106 110 112 114 116 116 121 127 127 125 126 123 113 106 102 91 84 79 71 66 59 50 48 47 42 39 39 37 32 31 35 39 42 42 43 42 42 45 47 49 53 56 57 57 55 55 57 57 55 52 52 57 64 68 73 82 92 102 113 117 116 117 122 124 122 120 119 119 119 119
91 100 119 112 86 68 65 78 89 93 96 100 97 95 102 107 106 107 106 106 112 121 124 129 131 131 140 146 139 135 137 135 126 112 96 82 76 70 62 59 59 55 51 49 46 42 40 42 45 45 44 43 42 39 40 43 49 55 58 61 61 58 55 54 53 52 52 52 54 60 67 72 75 80 89 103 115 119 121 125 126 124 122 122 123 125 126
124 134 140 131 108 91 88 99 104 103 105 108 106 104 105 104 107 108 102 100 108 121 133 142 140 130 141 156 154 155 168 172 168 161 144 122 106 85 69 67 69 64 57 52 49 48 50 52 52 51 50 48 44 40 38 39 46 54 58 59 61 62 60 57 54 51 49 49 52 56 65 74 78 80 83 90 103 114 122 126 126 125 124 126 130 132 131
123 132 134 125 111 110 118 121 113 108 108 107 107 110 110 108 114 118 114 110 107 105 123 147 152 148 151 163 164 166 178 184 176 169 161 145 123 96 77 73 71 67 63 58 52 51 53 54 54 56 56 52 46 42 41 42 48 54 55 56 59 63 64 63 61 58 54 50 50 52 60 71 81 87 88 89 93 102 112 121 126 126 126 127 128 132 134
113 124 128 119 113 117 127 128 117 112 113 111 108 111 114 118 123 122 119 122 123 110 96 122 144 150 153 161 168 167 172 185 183 170 161 155 140 97 37 26 20 28 49 60 57 57 62 61 56 53 52 49 45 46 49 52 56 61 64 64 64 66 69 70 68 64 59 54 51 51 56 64 73 84 90 91 91 93 99 107 112 114 117 122 126 131 135
117 123 117 109 110 115 121 116 107 109 117 118 117 121 127 129 128 126 124 125 127 125 116 113 131 142 141 143 149 143 138 162 184 180 168 142 97 58 31 20 12 16 58 107 94 77 78 75 64 55 51 49 46 46 49 52 54 57 60 65 68 69 73 76 74 67 61 55 52 52 56 62 68 77 85 89 90 89 92 96 100 103 105 111 122 129 130
111 114 109 100 99 107 113 108 101 110 120 121 119 123 130 132 128 124 124 123 123 125 127 127 131 134 131 127 124 117 111 115 128 131 118 97 81 68 57 54 55 61 81 117 125 102 83 76 65 55 53 53 48 41 39 43 52 60 63 66 68 67 66 69 72 68 61 55 53 53 53 58 67 75 82 89 94 96 97 97 95 95 96 101 111 120 123
111 118 117 110 108 119 129 128 131 133 128 124 121 118 122 125 121 115 111 109 110 116 125 132 133 129 125 123 120 117 114 113 112 110 103 92 79 65 58 59 60 61 65 81 98 94 75 64 59 54 53 53 48 41 36 36 45 60 68 66 64 61 59 60 63 65 66 66 64 59 52 53 64 75 84 97 106 106 104 102 96 90 90 95 103 112 118
113 111 106 115 133 149 144 127 125 122 118 119 121 120 119 119 115 110 104 101 103 107 115 126 133 132 128 127 125 123 120 117 113 108 99 88 78 66 62 64 66 67 66 66 73 75 58 48 48 50 49 49 47 44 38 35 42 57 64 58 55 58 61 61 60 62 66 70 72 64 53 52 64 78 88 102 113 111 107 105 100 94 92 96 103 111 117
108 82 66 86 109 114 107 107 111 108 107 115 118 118 120 118 109 106 109 109 112 114 113 118 130 132 131 138 139 130 124 120 116 109 101 91 81 72 69 71 73 73 70 67 67 69 59 43 39 42 44 44 45 47 44 37 41 52 56 50 48 52 55 55 57 60 63 66 68 68 62 61 79 98 100 104 113 115 111 108 106 102 103 106 110 114 117
99 90 91 93 100 106 111 120 124 117 117 122 117 111 117 120 116 123 133 130 136 142 139 136 139 135 137 154 151 134 126 128 125 117 110 99 83 74 75 85 89 79 66 57 55 56 54 41 29 31 38 39 40 43 46 41 36 34 35 37 41 42 39 36 39 48 58 64 70 76 74 67 81 112 123 117 119 121 119 115 113 111 111 113 115 117 121
102 95 99 101 109 118 123 127 129 130 132 129 122 114 116 118 123 162 198 187 184 184 183 180 181 188 189 177 157 134 126 135 139 136 130 110 83 70 57 64 78 75 62 52 47 47 48 41 31 28 30 30 30 35 41 43 39 30 21 18 19 21 22 20 19 26 42 58 66 71 73 68 77 120 148 146 136 133 130 125 121 121 120 119 119 121 125
103 101 104 104 110 119 123 126 134 142 144 136 141 163 173 165 171 195 206 206 209 208 206 208 212 217 219 213 204 201 205 201 183 165 150 113 80 64 43 38 55 65 57 51 43 39 36 32 28 23 19 17 20 28 34 38 39 35 25 9 357 358 4 8 9 14 25 44 53 56 60 60 66 105 154 165 157 148 145 139 131 128 129 129 129 131 135
109 109 118 123 120 128 149 174 175 172 180 183 188 200 201 195 200 215 218 213 211 211 214 218 222 225 227 229 231 229 221 208 196 186 175 105 62 43 25 16 7 326 303 330 358 0 358 0 6 3 357 358 6 14 21 26 31 33 32 23 1 351 350 349 355 6 15 24 34 41 46 49 51 68 135 171 172 162 157 155 149 146 149 150 152 156 157
150 162 169 167 166 169 179 188 189 187 197 209 215 215 211 208 215 224 218 201 193 195 202 207 210 212 212 211 208 202 196 193 195 203 219 264 19 10 0 358 339 304 272 267 281 294 305 326 344 345 335 337 346 348 346 357 12 21 30 34 25 11 1 350 336 344 360 9 15 20 28 39 46 50 69 150 177 177 172 171 172 178 190 189 180 177 174
168 172 178 180 181 182 178 175 177 183 189 197 209 213 212 210 206 201 191 181 175 176 178 179 181 187 188 184 183 186 189 194 200 206 217 279 13 14 14 18 1 330 298 266 262 274 290 306 329 339 328 322 332 335 325 327 344 357 9 17 15 12 11 6 348 325 337 354 359 1 13 41 57 53 52 73 168 189 194 200 203 200 200 195 179 169 165
169 168 174 182 187 187 182 180 183 185 183 182 185 187 187 184 179 176 176 174 169 165 166 170 178 183 182 178 178 178 180 182 178 166 157 41 22 15 11 11 8 6 7 352 281 297 315 313 323 334 326 315 314 313 307 312 325 330 336 347 353 358 4 8 4 342 321 339 352 357 12 71 79 65 58 58 82 203 220 227 216 188 185 194 181 165 159
173 172 173 180 186 186 186 185 180 173 167 163 163 165 168 170 168 166 168 169 164 163 168 174 179 181 179 175 172 167 169 175 170 161 171 356 8 0 358 5 6 2 7 17 20 355 335 325 329 340 338 329 318 299 286 295 310 313 316 327 341 349 356 4 7 360 327 313 334 346 347 152 97 40 27 9 343 283 248 246 226 190 180 186 180 173 172
176 177 176 179 179 176 174 171 164 155 148 146 152 160 166 168 165 164 167 168 166 169 175 179 178 175 174 176 182 190 199 208 212 214 224 254 303 312 316 323 320 315 321 330 334 340 339 331 332 341 344 342 337 322 303 298 297 299 303 311 325 343 355 1 2 359 342 306 294 303 290 241 252 289 322 334 326 282 214 245 251 216 191 181 179 186 190
160 164 165 166 163 158 155 155 153 150 148 149 155 162 166 167 166 166 169 171 172 177 181 181 181 182 185 194 208 219 222 224 231 242 253 268 282 291 297 298 289 278 273 272 283 301 310 308 320 334 338 331 325 323 320 313 303 295 296 300 309 330 350 357 358 357 352 330 288 269 262 261 268 275 283 307 324 264 194 223 247 220 193 183 191 210 209
149 149 150 151 150 150 151 153 156 156 156 158 162 165 167 169 169 169 172 176 180 184 184 184 186 193 199 207 217 225 227 232 243 257 271 282 287 292 300 307 303 278 258 257 267 280 280 280 305 331 337 329 320 314 312 312 305 292 289 295 303 320 343 353 351 351 358 0 338 285 266 264 269 275 278 280 281 266 232 230 233 221 208 204 217 225 217
151 150 150 151 152 155 157 159 161 163 164 166 168 170 172 173 173 174 176 179 182 187 190 192 196 201 207 214 223 233 241 250 257 261 268 276 282 284 290 303 315 289 252 251 260 274 279 282 298 314 321 327 331 327 318 315 309 293 279 286 304 325 347 0 2 1 10 18 14 345 303 280 273 272 272 272 269 261 250 243 240 234 230 232 236 231 220
152 151 152 154 158 160 162 163 165 168 171 174 175 175 177 180 180 180 180 181 184 190 195 200 207 214 219 224 233 244 250 254 256 257 259 265 270 273 280 293 305 274 244 240 247 270 285 293 306 314 313 315 326 331 325 317 311 301 283 283 307 330 351 9 23 34 36 31 22 10 351 320 293 279 271 266 264 261 258 257 254 249 244 242 241 236 231
155 153 154 157 162 164 166 168 169 169 173 178 180 180 183 187 189 188 188 188 191 197 202 207 214 221 224 229 240 247 247 246 253 259 259 258 262 265 269 278 283 259 239 234 239 265 282 290 326 350 337 311 306 319 325 320 314 307 297 296 315 333 346 356 5 13 19 23 21 13 3 353 340 319 286 265 259 258 258 260 260 257 252 249 245 240 237
160 160 159 161 163 165 167 169 169 168 172 178 182 185 189 192 195 197 197 197 199 205 212 218 225 230 232 235 241 242 239 237 246 254 250 249 255 261 264 270 271 249 229 224 234 257 268 268 306 6 4 335 317 324 330 330 322 308 293 296 316 327 327 327 333 340 345 349 356 0 360 357 354 351 340 307 276 265 263 264 263 261 261 260 255 246 240
164 165 163 162 163 165 166 169 172 174 175 177 180 185 190 192 192 195 199 202 206 212 217 219 223 228 230 232 235 236 233 234 239 241 238 243 260 275 283 288 282 253 227 223 232 250 257 256 267 322 354 347 338 337 338 340 334 315 295 289 298 312 324 333 336 337 336 328 315 308 322 338 342 347 352 347 328 307 296 287 276 266 264 266 260 247 237
160 159 156 157 161 166 170 176 182 183 180 177 180 186 190 189 187 189 194 200 206 211 212 209 206 205 206 210 217 221 225 230 235 237 238 246 258 269 285 299 289 259 234 229 235 245 252 253 255 267 296 320 331 336 336 338 338 330 313 293 282 286 304 324 332 336 338 332 317 305 298 295 298 312 329 335 329 320 316 310 293 272 260 258 253 243 237
151 150 150 152 157 166 174 180 183 179 174 175 185 195 197 195 194 192 190 191 195 198 197 198 203 205 205 209 217 222 222 222 224 227 231 236 240 239 239 255 264 249 237 236 241 246 252 254 254 257 271 291 306 316 322 325 326 325 316 294 279 286 298 308 318 327 331 329 325 323 315 304 296 294 296 301 304 304 306 308 302 282 262 256 257 255 251
150 149 149 148 149 155 164 171 174 174 177 186 196 201 203 205 207 201 191 184 184 183 182 188 199 206 206 211 216 218 216 221 229 232 228 225 228 232 233 233 235 236 236 240 245 248 251 253 255 261 275 288 293 296 301 306 310 311 305 291 283 289 298 302 306 313 316 315 315 316 316 316 315 306 296 293 295 296 298 300 296 283 268 262 264 266 264
152 151 151 151 151 153 158 164 167 172 181 191 197 198 199 201 202 198 192 190 194 195 191 191 194 195 196 202 209 208 210 221 234 237 224 214 218 229 236 235 233 235 237 240 244 251 255 257 261 270 281 289 291 292 293 294 295 298 301 298 289 285 287 291 295 299 302 304 304 302 301 304 305 304 304 307 307 302 297 292 285 278 274 270 267 266 268
154 154 156 159 163 164 164 165 166 169 175 181 188 192 191 188 187 187 189 194 198 197 192 188 189 190 192 196 201 202 204 211 219 220 216 214 218 227 234 234 235 239 243 245 248 253 256 256 262 276 287 291 292 293 293 291 288 286 289 292 291 287 286 286 287 290 294 298 298 297 297 297 296 293 294 301 306 307 303 292 277 268 268 269 265 261 263
160 162 165 170 174 175 173 172 173 175 175 174 175 182 186 184 184 186 191 193 193 188 180 175 175 179 183 186 192 195 195 199 203 206 210 215 218 221 225 230 234 243 249 247 245 246 248 252 264 280 287 285 285 286 287 286 284 278 275 278 284 289 290 288 286 287 290 294 297 296 292 289 287 289 293 297 302 305 304 295 279 264 260 263 263 258 257
167 169 171 174 177 177 178 180 181 178 174 171 172 178 183 185 185 186 188 191 193 192 184 175 169 167 171 180 189 192 192 196 202 204 207 213 220 225 231 234 236 241 244 238 233 237 245 254 266 278 280 278 278 282 286 290 292 287 278 273 274 279 287 296 299 296 291 289 294 299 298 292 291 297 302 304 303 302 300 298 292 279 269 266 262 254 247